Погода в Тханьхоа

Вьетнам     19°48′30″N   105°46′32″E
темп.,
°C
ветер,
м/с
пор.,
м/с
влажн.,
%
обл.,
%
осадки,
мм/ч
давл.,
гПа
погр.,
м
6 мая, чт
чт601:00+24ююз2394100 13.9 1012108
04:00+24ссз1194100 0.0 101240
07:00+25ссв118999 0.0 1014155
10:00+30св1171100 0.1 1015877
13:00+31юв3460100 0.4 10121412
16:00+29юв457399 0.0 1011490
19:00+26ююв2689100 0.0 1011201
22:00+25ююз129389 0.0 101266
7 мая, пт
пт701:00+24ю239615 0.0 101287
04:00+24ю1297100 0.0 101172
07:00+26ю2490100 0.0 1013276
10:00+31ююв4563100 0.0 10131170
13:00+32ююв445998 0.0 10111365
16:00+30юв446722 0.0 1008892
19:00+26ююв488768 0.1 1010479
22:00+26ююз1291100 0.1 101173
8 мая, сб
сб801:00+25ююв239499 0.1 1009157
04:00+25вюв1295100 0.0 100970
07:00+27ююв1288100 0.1 1010309
10:00+30ююв237297 0.1 1011983
13:00+30юв4471100 0.2 1009872
16:00+30юв446983 0.1 1007773
19:00+26юв128999 0.3 100953
22:00+25юз1195100 0.8 100914
9 мая, вс
вс901:00+25ююз129773 0.8 100858
04:00+24ююз11977 0.0 100738
07:00+26юз019026 0.0 1008238
10:00+32ююв2364100 0.0 10081007
13:00+33юв556016 0.0 10061224
16:00+30юв5673100 0.1 1003520
19:00+26юв3692100 0.7 1004225
22:00+26ю3109188 0.1 1006420
10 мая, пн
пн1001:00+26ю129536 0.1 100451
04:00+25юз119362 0.0 100325
07:00+27ююз237971 0.0 1004202
10:00+33ююз24529 0.0 1005859
13:00+37ююв344323 0.0 10021724
16:00+35юв5752100 0.0 1000966
19:00+28ююв36834 0.0 1002194
22:00+28ююв48885 0.0 1003297